Location: North Evanston
(42.0634°N, 87.6976°W)
Time: 04:35:02
(UTC+00:00)

Vanguard 2 Rocket - All Passes

Search period start: 10 May 2026 00:00
Search period end: 20 May 2026 00:00
Orbit: 553 x 3286 km, 32.9° (Epoch: 9 May)

Date Brightness Start Highest point End Pass type
(mag) Time Alt. Az. Time Alt. Az. Time Alt. Az.
10 May - 00:15:38 10° W 00:31:23 34° SW 00:42:53 10° SSE daylight
10 May - 14:22:40 10° SE 14:23:52 10° SE 14:25:04 10° ESE daylight
10 May - 16:23:27 10° SSW 16:36:18 36° SE 16:53:00 10° E daylight
10 May - 18:34:56 10° WSW 18:51:45 59° SSE 19:10:53 10° E daylight
10 May - 20:49:47 10° W 21:08:59 63° S 21:26:17 10° ESE daylight
10 May - 23:07:04 10° W 23:25:07 45° SSW 23:38:50 10° SE daylight
11 May - 01:28:34 10° W 01:38:16 18° SW 01:46:07 10° SSW visible
11 May - 15:20:07 10° S 15:30:23 25° SE 15:43:48 10° E daylight
11 May - 17:29:35 10° SW 17:44:27 52° SSE 18:03:22 10° E daylight
11 May - 19:43:05 10° WSW 20:01:13 64° S 20:19:57 10° ESE daylight
11 May - 21:59:11 10° W 22:18:11 54° SSW 22:33:57 10° SE daylight
12 May - 00:18:10 10° W 00:32:44 28° SW 00:44:01 10° S daylight
12 May - 14:18:43 10° SSE 14:25:04 15° SE 14:32:44 10° E daylight
12 May - 16:24:57 10° SSW 16:37:45 42° SSE 16:55:14 10° E daylight
12 May - 18:37:00 10° WSW 18:53:30 62° S 19:12:59 10° E daylight
12 May - 20:51:56 10° W 21:10:44 60° SSW 21:28:19 10° ESE daylight
12 May - 23:09:18 10° W 23:26:34 39° SW 23:40:21 10° SSE daylight
13 May - 01:33:36 10° WSW 01:39:28 12° SW 01:44:42 10° SSW visible
13 May - 15:21:11 10° SSW 15:31:44 31° SE 15:46:26 10° E daylight
13 May - 17:31:34 10° SW 17:46:08 57° SSE 18:05:25 10° E daylight
13 May - 19:45:17 10° W 20:03:01 64° S 20:21:59 10° ESE daylight
13 May - 22:01:22 10° W 22:19:46 48° SSW 22:35:41 10° SE daylight
14 May - 00:21:11 10° W 00:33:59 22° SW 00:44:33 10° S daylight
14 May - 14:18:38 10° S 14:26:23 20° SE 14:36:34 10° E daylight
14 May - 16:26:47 10° SW 16:39:20 48° SSE 16:57:19 10° E daylight
14 May - 18:39:13 10° WSW 18:55:19 64° S 19:14:59 10° ESE daylight
14 May - 20:54:08 10° W 21:12:26 56° SSW 21:30:11 10° SE daylight
14 May - 23:11:48 10° W 23:27:55 32° SW 23:41:29 10° SSE daylight
15 May - 15:22:43 10° SSW 15:33:13 37° SE 15:48:43 10° E daylight
15 May - 17:33:44 10° WSW 17:47:56 60° SSE 18:07:23 10° E daylight
15 May - 19:47:33 10° W 20:04:49 61° S 20:23:54 10° ESE daylight
15 May - 22:03:40 10° W 22:21:14 42° SSW 22:37:07 10° SSE daylight
16 May - 00:25:06 10° W 00:35:11 17° SW 00:44:03 10° SSW daylight
16 May - 14:19:32 10° S 14:27:48 25° SE 14:39:29 10° E daylight
16 May - 16:28:51 10° SW 16:41:04 53° SSE 16:59:17 10° E daylight
16 May - 18:41:32 10° WSW 18:57:11 63° S 19:16:54 10° ESE daylight
16 May - 20:56:26 10° W 21:14:04 51° SSW 21:31:47 10° SE daylight
16 May - 23:14:40 10° W 23:29:11 26° SW 23:42:03 10° S daylight
17 May - 13:18:12 10° SSE 13:22:57 14° SE 13:28:47 10° ESE daylight
17 May - 15:24:34 10° SW 15:34:53 42° SSE 15:50:48 10° E daylight
17 May - 17:36:03 10° WSW 17:49:49 62° S 18:09:16 10° E daylight
17 May - 19:49:53 10° W 20:06:35 57° SSW 20:25:38 10° ESE daylight
17 May - 22:06:12 10° W 22:22:39 36° SW 22:38:10 10° SSE daylight
18 May - 00:31:36 10° WSW 00:36:22 11° SW 00:40:55 10° SW daylight
18 May - 14:21:01 10° SSW 14:29:21 30° SE 14:41:57 10° E daylight
18 May - 16:31:06 10° WSW 16:42:56 56° SSE 17:01:11 10° E daylight
18 May - 18:43:55 10° W 18:59:04 61° S 19:18:41 10° ESE daylight
18 May - 20:58:52 10° W 21:15:38 45° SSW 21:33:07 10° SE daylight
18 May - 23:18:12 10° W 23:30:26 20° SW 23:41:48 10° S daylight
19 May - 13:18:34 10° S 13:24:28 19° SE 13:32:26 10° E daylight
19 May - 15:26:41 10° SW 15:36:41 47° SSE 15:52:46 10° E daylight
19 May - 17:38:28 10° WSW 17:51:47 62° S 18:11:05 10° ESE daylight
19 May - 19:52:18 10° W 20:08:19 52° SSW 20:27:08 10° SE daylight
19 May - 22:09:03 10° W 22:24:01 29° SW 22:38:42 10° SSE daylight
